Regional Weather Roundup
Issued by NWS

Home | Current Version | Previous Version | Text Only | Print | Product List | Glossary On
Versions: 1 2 3 4 5 6 7 8 9 10 11 12 13 14 15 16 17 18 19 20 21 22 23 24 25 26 27 28 29 30 31 32 33 34 35 36 37 38 39 40 41 42 43 44 45 46 47 48 49 50
000
ASUS43 KDTX 230010
RWRMI
MICHIGAN HOURLY REGIONAL WEATHER ROUNDUP
NATIONAL WEATHER SERVICE DETROIT/PONTIAC MI
800 PM EDT MON SEP 22 2014

NOTE: "FAIR" INDICATES FEW OR NO CLOUDS BELOW 12,000 FEET WITH NO
SIGNIFICANT WEATHER AND/OR OBSTRUCTION TO VISIBILITY.

MIZ047>049-052>055-059>063-066>070-074>076-081>083-230100-
SOUTHEAST LOWER MICHIGAN

CITY           SKY/WX    TMP DP  RH WIND       PRES   REMARKS
ADRIAN         CLEAR     56  44  64 N3        30.23R
6HR MIN TEMP:  56; 6HR MAX TEMP:  64;

ALMA           CLEAR     52  48  85 SW5       30.20S
ANN ARBOR      CLEAR     50  44  80 W3        30.21R
BAD AXE        PTCLDY    52  47  82 SW5       30.18R
6HR MIN TEMP:  52; 6HR MAX TEMP:  59;

CARO           MOCLDY    52  48  87 CALM      30.18R
DETROIT CITY   CLEAR     60  41  49 NW3       30.21R
6HR MIN TEMP:  59; 6HR MAX TEMP:  64;

DETROIT        PTCLDY    57  42  57 NW3       30.22R
6HR MIN TEMP:  57; 6HR MAX TEMP:  63;

FLINT          MOCLDY    56  45  66 CALM      30.20S
6HR MIN TEMP:  56; 6HR MAX TEMP:  64;

GROSSE ILE     CLEAR     57  45  62 CALM      30.21R
HILLSDALE      CLEAR     51  46  84 CALM      30.23R
6HR MIN TEMP:  51; 6HR MAX TEMP:  64;

HOWELL         PTCLDY    52  44  73 CALM      30.21S

CITY           SKY/WX    TMP DP  RH WIND       PRES   REMARKS
JACKSON        CLEAR     54  45  71 CALM      30.22R
6HR MIN TEMP:  54; 6HR MAX TEMP:  63;

LAMBERTVILLE   CLEAR     52  46  82 CALM      30.23R
LANSING        CLOUDY    57  45  64 W5        30.22R
6HR MIN TEMP:  56; 6HR MAX TEMP:  63;

LAPEER         FAIR      52  47  85 S3        30.20S
MASON          PTCLDY    56  44  64 W3        30.22R
MONROE         CLEAR     54  45  71 CALM      30.21R
MT. CLEMENS    PTCLDY    55  42  60 CALM      30.18S
6HR MIN TEMP:  55; 6HR MAX TEMP:  61;

PONTIAC        PTCLDY    56  43  61 W5        30.20S
6HR MIN TEMP:  56; 6HR MAX TEMP:  61;

PORT HOPE        N/A     55  46  71 SW5       30.15S
6HR MIN TEMP:  54; 6HR MAX TEMP:  60;

PORT HURON     CLEAR     46  45  93 CALM      30.21R
TRI CITIES     CLEAR     59  47  64 SW6       30.20R
6HR MIN TEMP:  59; 6HR MAX TEMP:  64;

TROY           CLEAR     59  41  51 CALM      30.23R
SAGINAW HB     PTCLDY    55  46  71 SW5       30.19R
$$
MIZ043>046-050>051-056>058-064>065-071>073-077>080-230100-
SOUTHWEST LOWER MICHIGAN

CITY           SKY/WX    TMP DP  RH WIND       PRES   REMARKS
BATTLE CREEK   CLEAR     54  44  69 NW6       30.24R
6HR MIN TEMP:  54; 6HR MAX TEMP:  63;

BENTON HARBOR  CLEAR     51  47  86 CALM      30.24S
6HR MIN TEMP:  51; 6HR MAX TEMP:  59;

BIG RAPIDS     CLEAR     54  49  82 W3        30.20R
6HR MIN TEMP:  54; 6HR MAX TEMP:  63;

COLDWATER      CLEAR     57  46  66 NW5       30.23R
6HR MIN TEMP:  57; 6HR MAX TEMP:  64;

FREMONT        FAIR      53  47  79 CALM      30.21S
HOLLAND        CLEAR     54  48  80 CALM      30.24R
6HR MIN TEMP:  54; 6HR MAX TEMP:  62;

GRAND RAPIDS   CLEAR     57  47  69 W7        30.23R
6HR MIN TEMP:  57; 6HR MAX TEMP:  64;

IONIA          FAIR      56  47  72 W7        30.22R
KALAMAZOO      CLEAR     54  44  69 W6        30.24R
6HR MIN TEMP:  54; 6HR MAX TEMP:  64;

LUDINGTON      CLEAR     55  51  86 S5        30.20R
6HR MIN TEMP:  55; 6HR MAX TEMP:  59;

MARSHALL       CLEAR     55  45  69 NW3       30.23R
MOUNT PLEASANT CLEAR     55  46  72 W3        30.19R
6HR MIN TEMP:  55; 6HR MAX TEMP:  65;

MUSKEGON       PTCLDY    56  48  74 CALM      30.22S
6HR MIN TEMP:  55; 6HR MAX TEMP:  61;

SOUTH HAVEN    CLEAR     53  49  86 CALM      30.24S
$$
MIZ016>042-230100-
NORTHERN LOWER MICHIGAN

CITY           SKY/WX    TMP DP  RH WIND       PRES   REMARKS
ALPENA         CLEAR     56  46  69 SW3       30.13R
6HR MIN TEMP:  56; 6HR MAX TEMP:  63;

BEAVER ISLAND  CLEAR     57  52  82 SW10      30.11S
6HR MIN TEMP:  57; 6HR MAX TEMP:  61;

BELLAIRE       CLEAR     54  49  83 CALM      30.15S
6HR MIN TEMP:  54; 6HR MAX TEMP:  64;

CADILLAC       CLEAR     52  46  79 SW6       30.18S
CHARLEVOIX     CLEAR     57  49  74 SW7       30.16S
6HR MIN TEMP:  57; 6HR MAX TEMP:  61;

FRANKFORT      CLEAR     56  51  81 CALM      30.16F
GAYLORD        CLEAR     53  45  74 W6        30.15S
6HR MIN TEMP:  53; 6HR MAX TEMP:  60;

GRAYLING       CLEAR     54  45  72 SW3       30.17R
6HR MIN TEMP:  54; 6HR MAX TEMP:  63;

HARBOR SPRINGS CLEAR     58  48  69 SW7       30.13S
HOUGHTON LAKE  CLEAR     57  46  66 W7        30.18R
6HR MIN TEMP:  57; 6HR MAX TEMP:  62;

MANISTEE       CLEAR     55  46  71 S3        30.19S
OSCODA         CLEAR     51  47  84 W5        30.15R
PELLSTON       CLEAR     55  51  86 SW6       30.12F
6HR MIN TEMP:  55; 6HR MAX TEMP:  61;

ROGERS CITY    CLEAR     55  50  81 W6        30.12S
TRAVERSE CITY  PTCLDY    57  46  66 SW5       30.15S
6HR MIN TEMP:  57; 6HR MAX TEMP:  64;

$$
MIZ007>008-015-230100-
EASTERN UPPER MICHIGAN

CITY           SKY/WX    TMP DP  RH WIND       PRES   REMARKS
KINROSS        CLEAR     55  54  94 SW3       30.09R
6HR MIN TEMP:  55; 6HR MAX TEMP:  61;

MACKINAC ISLAN CLEAR     57  52  85 SW13G20   30.10S
6HR MIN TEMP:  56; 6HR MAX TEMP:  59;

NEWBERRY       CLEAR     55  50  83 SW9       30.08S
S. S. MARIE    CLEAR     54  47  77 W3        30.07S
6HR MIN TEMP:  54; 6HR MAX TEMP:  60;

MUNISING         N/A     57  51  80 S5        30.07S
6HR MIN TEMP:  57; 6HR MAX TEMP:  67;

$$
MIZ004>006-011>014-085-230100-
CENTRAL UPPER MICHIGAN

CITY           SKY/WX    TMP DP  RH WIND       PRES   REMARKS
MANISTIQUE     CLEAR     56  53  89 SW8       30.09S
ESCANABA       CLEAR     61  48  63 SW3       30.10S
6HR MIN TEMP:  61; 6HR MAX TEMP:  70;

MENOMINEE      CLEAR     63  48  59 W5        30.12S
6HR MIN TEMP:  63; 6HR MAX TEMP:  68;

SAWYER-GWINN   CLEAR     61  46  59 SW6       30.09S
$$
MIZ001>003-009>011-084-230100-
WESTERN UPPER MICHIGAN

CITY           SKY/WX    TMP DP  RH WIND       PRES   REMARKS
IRON MOUNTAIN  CLEAR     61  48  62 SW3       30.11S
6HR MIN TEMP:  61; 6HR MAX TEMP:  68;

HOUGHTON       CLEAR     61  49  64 W14       30.05F
6HR MIN TEMP:  61; 6HR MAX TEMP:  65;

COPPER HARBOR    N/A     63  49  60 VRB7      30.03R
6HR MIN TEMP:  63; 6HR MAX TEMP:  67;

IRONWOOD       CLEAR     63  52  67 SW6       30.09F
6HR MIN TEMP:  63; 6HR MAX TEMP:  66;

$$

ABBREVIATIONS USED IN REMARKS
   TC - TEMPERATURE IN CELSIUS
  WCI - WIND CHILL INDEX
   HX - HEAT INDEX
  VSB - VISIBILITY



USA.gov is the U.S. government's official web portal to all federal, state and local government web resources and services.